Content
SEND FEEDBACK

Daily
Averages
Monthly
Summary
United States of America

DILLINGHAM, ALASKA


Home > North America > United States > Alaska
Elevation: 86 feet     Latitude: 59 03N     Longitude: 158 31W

WEATHER
 
SELECT A DAY
Number of Records: 283,289;   Date Range: 1/1/95 - 10/29/14
 
SHARE

PRINT THIS DATA

[ ← Previous Day ]
WEATHER ALMANAC - JANUARY 31, 2013
[ Next Day → ]
[ °C ]   °F
Weather ElementAverageHighLow
Temperature24.9 °F30.2 °F (2:16 am)19.4 °F (6:16 am)
Dewpoint23.9 °F30.2 °F (2:16 am)17.6 °F (6:36 am)
Humidity96 %100 % (12:36 am)86 % (9:56 pm)
Barometer29.79 in29.87 in (11:45 am)29.69 in (12:36 am)
Wind Speed8.2 mph21.9 mph (10:36 pm)
Wind Gust29.9 mph (7:47 pm)
Weather ElementAverage
Visibility7.8 mi
Wind DirectionSSW (195.1 °)

Weather ElementTotal
Precipitation---
Heating Degree Days40.2 (Base 65)
Averaged from 47 records on January 31, 2013
WEATHER CONDITIONS BREAKOUT
WIND DIRECTION BREAKOUT
WEATHER BY HOUR - JANUARY 31, 2013
[ °C ]   °F
Local TimeTemperatureDewpointHumidityBarometerVisibilityWind DirectionWind SpeedGust SpeedPrecipitationEventsConditions
12:36 AM28.4 °F28.4 °F100 %29.69 in4.0 miCalmOvercast
12:56 AM28.4 °F28.4 °F100 %29.69 in10.0 miCalmOvercast
1:16 AM28.4 °F28.4 °F100 %29.70 in10.0 miCalmOvercast
1:36 AM28.4 °F28.4 °F100 %29.71 in10.0 miCalmOvercast
1:56 AM28.4 °F28.4 °F100 %29.72 in10.0 miCalmOvercast
2:16 AM30.2 °F30.2 °F100 %29.73 in10.0 miCalmOvercast
2:36 AM30.2 °F30.2 °F100 %29.73 in10.0 miCalmOvercast
2:56 AM30.2 °F30.2 °F100 %29.74 in10.0 miCalmOvercast
3:16 AM28.4 °F28.4 °F100 %29.74 in10.0 miCalmOvercast
3:36 AM28.4 °F28.4 °F100 %29.75 in10.0 miCalmMostly Cloudy
3:56 AM26.6 °F24.8 °F93 %29.75 in10.0 miCalmClear
4:16 AM24.8 °F23.0 °F93 %29.75 in0.8 miCalmOvercast
4:36 AM24.8 °F23.0 °F93 %29.76 in0.5 miCalmOvercast
4:56 AM23.0 °F21.2 °F93 %29.76 in1.0 miCalmOvercast
5:16 AM21.2 °F21.2 °F100 %29.76 in1.5 miCalmOvercast
5:36 AM21.2 °F21.2 °F100 %29.76 in0.8 miCalmOvercast
5:56 AM21.2 °F21.2 °F100 %29.76 in0.8 miCalmOvercast
6:16 AM19.4 °F19.4 °F100 %29.77 in1.5 miNW (320°)3.5 mphMostly Cloudy
6:36 AM19.4 °F17.6 °F93 %29.78 in3.0 miWest (280°)3.5 mphPartly Cloudy
6:56 AM19.4 °F19.4 °F100 %29.78 in10.0 miCalmClear
7:16 AM19.4 °F19.4 °F100 %29.79 in0.8 miNW (310°)3.5 mphOvercast
7:36 AM19.4 °F19.4 °F100 %29.80 in0.5 miCalmOvercast
7:45 AM19.4 °F19.4 °F100 %29.80 in1.0 miNNW (330°)4.6 mphScattered Clouds
7:57 AM19.4 °F17.6 °F93 %29.80 in6.0 miNorth (360°)9.2 mphScattered Clouds
8:10 AM19.4 °F19.4 °F100 %29.80 in1.0 miNorth (350°)8.1 mphScattered Clouds
8:45 AM21.2 °F21.2 °F100 %29.80 in10.0 miNorth (360°)8.1 mphOvercast
9:45 AM24.8 °F24.8 °F100 %29.84 in4.0 miNNW (340°)6.9 mphOvercast
10:45 AM26.6 °F24.8 °F93 %29.85 in3.0 miNNW (340°)11.5 mphLight Freezing Drizzle
11:45 AM26.6 °F26.6 °F100 %29.87 in15.0 miNNW (340°)11.5 mphScattered Clouds
12:49 PM28.4 °F28.4 °F100 %29.87 in10.0 miNW (310°)15.0 mph21.9 mphMostly Cloudy
1:45 PM28.4 °F26.6 °F93 %29.85 in15.0 miNNW (330°)15.0 mph24.2 mphMostly Cloudy
2:48 PM30.2 °F28.4 °F93 %29.84 in15.0 miNW (310°)15.0 mph17.3 mphMostly Cloudy
3:49 PM28.4 °F28.4 °F100 %29.84 in15.0 miNW (320°)13.8 mph21.9 mphMostly Cloudy
4:51 PM26.6 °F26.6 °F100 %29.86 in15.0 miNNW (330°)13.8 mphScattered Clouds
5:50 PM26.6 °F26.6 °F100 %29.86 in10.0 miNW (320°)13.8 mphMostly Cloudy
6:48 PM26.6 °F24.8 °F93 %29.85 in10.0 miNW (320°)16.1 mph24.2 mphScattered Clouds
7:47 PM26.6 °F24.8 °F93 %29.83 in10.0 miNW (320°)20.7 mph29.9 mphScattered Clouds
8:47 PM26.6 °F24.8 °F93 %29.82 in10.0 miNW (310°)18.4 mph29.9 mphClear
9:30 PM24.8 °F23.0 °F93 %29.83 in10.0 miNW (310°)17.3 mph28.8 mphClear
9:36 PM24.8 °F23.0 °F93 %29.82 in10.0 miNNW (330°)19.6 mph24.2 mphClear
9:56 PM24.8 °F21.2 °F86 %29.82 in10.0 miNNW (330°)18.4 mph23.0 mphClear
10:16 PM24.8 °F21.2 °F86 %29.81 in10.0 miNNW (330°)19.6 mph28.8 mphClear
10:36 PM24.8 °F21.2 °F86 %29.79 in10.0 miNNW (330°)21.9 mph28.8 mphClear
10:56 PM23.0 °F21.2 °F93 %29.79 in10.0 miNNW (330°)20.7 mph28.8 mphClear
11:16 PM23.0 °F19.4 °F86 %29.79 in10.0 miNNW (330°)20.7 mph25.3 mphClear
11:36 PM23.0 °F19.4 °F86 %29.80 in10.0 miNNW (340°)16.1 mph25.3 mphClear
11:56 PM23.0 °F19.4 °F86 %29.80 in10.0 miNNW (340°)18.4 mph21.9 mphClear
Hourly data recorded from PADL, located miles away from Dillingham, Alaska







STORIES FROM OUR PARTNERS